Weather History for Imperial, CA

Change the Weather History Date:

Tuesday, July 10, 2012

  Actual Average Record
Temperature  
Mean Temperature 100 °F -  
Max Temperature 116 °F 106 °F 116 °F (2012)
Min Temperature 84 °F 77 °F 69 °F (1960)
Cooling Degree Days 34    
Growing Degree Days 50 (Base 50)    
Moisture  
Dew Point 52 °F    
Average Humidity 22    
Maximum Humidity 45    
Minimum Humidity 10    
Precipitation  
Precipitation 0.00 in - - ()
Sea Level Pressure  
Sea Level Pressure 29.67 in    
Wind  
Wind Speed 6 mph (SSW)    
Max Wind Speed 10 mph    
Max Gust Speed -    
Visibility 10 miles    
Events      
Averages and records for this station are not official NWS values.
T = Trace of Precipitation, MM = Missing Value Source: NWS Daily Summary

Daily Weather History Graph

Daily Weather History Graph

Search for Another Location

Airport:

Trip Planner

Search our weather history database for the weather conditions in past years. The results will help you decide how hot, cold, wet, or windy it might be!

Date:

Astronomy

Jul. 10, 2012 Rise Set
Actual Time 5:42 AM PDT 7:52 PM PDT
Civil Twilight 5:14 AM PDT 8:21 PM PDT
Nautical Twilight 4:39 AM PDT 8:55 PM PDT
Astronomical Twilight 4:02 AM PDT 9:32 PM PDT
Moon No Moon Rise 12:44 PM PDT (7/10)
Length of Visible Light 15h 06m
Length of Day
14h 10m
Waning Gibbous, 53% of the Moon is Illuminated
Jul 10
Waning Gibbous
Jul 10
Last Quarter
Jul 18
New
Jul 26
First Quarter
Aug 1
Full

Hourly Weather History & Observations

Time (PDT) Temp. Heat Index Dew Point Humidity Pressure Visibility Wind Dir Wind Speed Gust Speed Precip Events Conditions
12:53 AM 90.0 °F - 48.9 °F 24% 29.69 in 10.0 mi West 6.9 mph - N/A   Clear
1:53 AM 88.0 °F - 48.9 °F 26% 29.69 in 10.0 mi West 5.8 mph - N/A   Clear
2:53 AM 87.8 °F - 48.2 °F 25% 29.69 in 10.0 mi West 5.8 mph - N/A   Clear
3:53 AM 88.0 °F - 48.0 °F 25% 29.69 in 10.0 mi Calm Calm - N/A   Clear
4:53 AM 87.1 °F - 45.0 °F 23% 29.69 in 10.0 mi Calm Calm - N/A   Clear
5:53 AM 84.9 °F - 48.9 °F 29% 29.70 in 10.0 mi SSW 3.5 mph - N/A   Clear
6:53 AM 89.1 °F 87.1 °F 55.0 °F 31% 29.72 in 10.0 mi SE 5.8 mph - N/A   Clear
7:53 AM 91.0 °F 94.3 °F 66.9 °F 45% 29.74 in 10.0 mi SE 8.1 mph - N/A   Clear
8:53 AM 95.0 °F 101.3 °F 70.0 °F 44% 29.75 in 10.0 mi SSE 9.2 mph - N/A   Clear
9:53 AM 100.0 °F 104.2 °F 66.0 °F 33% 29.74 in 10.0 mi SE 6.9 mph - N/A   Clear
10:53 AM 102.9 °F 103.0 °F 57.9 °F 23% 29.73 in 10.0 mi Variable 4.6 mph - N/A   Clear
11:53 AM 106.0 °F 108.6 °F 62.1 °F 24% 29.72 in 10.0 mi Variable 6.9 mph - N/A   Clear
12:53 PM 109.0 °F 108.1 °F 55.9 °F 17% 29.69 in 10.0 mi Variable 5.8 mph - N/A   Clear
1:53 PM 111.9 °F 110.5 °F 54.0 °F 15% 29.66 in 10.0 mi East 6.9 mph - N/A   Clear
2:53 PM 114.1 °F 112.6 °F 53.1 °F 14% 29.64 in 10.0 mi Variable 6.9 mph - N/A   Partly Cloudy
3:53 PM 115.0 °F - 46.9 °F 11% 29.62 in 10.0 mi SSE 5.8 mph - N/A   Scattered Clouds
4:53 PM 114.1 °F - 45.0 °F 10% 29.59 in 10.0 mi Calm Calm - N/A   Partly Cloudy
5:53 PM 114.1 °F - 45.0 °F 10% 29.57 in 10.0 mi Variable 3.5 mph - N/A   Partly Cloudy
6:53 PM 113.0 °F - 46.0 °F 11% 29.57 in 10.0 mi SSW 5.8 mph - N/A   Scattered Clouds
7:53 PM 109.9 °F - 46.0 °F 12% 29.58 in 10.0 mi Calm Calm - N/A   Scattered Clouds
8:53 PM 102.9 °F - 52.0 °F 18% 29.61 in 10.0 mi WSW 10.4 mph - N/A   Clear
9:53 PM 97.0 °F - 51.1 °F 21% 29.63 in 10.0 mi WSW 9.2 mph - N/A   Clear
10:53 PM 95.0 °F - 48.9 °F 21% 29.64 in 10.0 mi WSW 10.4 mph - N/A   Clear
11:53 PM 91.0 °F - 48.0 °F 23% 29.64 in 10.0 mi WSW 10.4 mph - N/A   Clear